Regional Weather Roundup
Issued by NWS

Home | Current Version | Previous Version | Text Only | Print | Product List | Glossary Off
Versions: 1 2 3 4 5 6 7 8 9 10 11 12 13 14 15 16 17 18 19 20 21 22 23 24 25 26 27 28 29 30 31 32 33 34 35 36 37 38 39 40 41 42 43 44 45 46 47 48 49 50

564
ASUS44 KJAN 232210
RWRMS

MISSISSIPPI HOURLY WEATHER ROUNDUP
NATIONAL WEATHER SERVICE JACKSON MS
500 PM CDT THU OCT 23 2014

NOTE: "FAIR: INDICATES FEW OR NO CLOUDS BELOW 12,000 FEET WITH NO
SIGNIFICANT WEATHER AND/OR OBSTRUCTIONS TO VISIBILITY.

MSZ001>002-007>008-010>013-018>021-025>028-034>036-232300-
NORTHWEST MISSISSIPPI

CITY           SKY/WX    TMP DP  RH WIND       PRES   REMARKS
CLARKSDALE     FAIR      61  48  63 NW5       30.15S
CLEVELAND      FAIR      60  49  65 N14       30.11F
GREENWOOD      CLOUDY    61  48  62 NE10      30.10F
GREENVILLE     CLOUDY    61  47  59 N8        30.11F
GRENADA          N/A    N/A N/A N/A MISG        N/A
OLIVE BRANCH   CLOUDY    61  45  55 NW9       30.14S
OXFORD         FAIR      59  48  67 NW6       30.14R
TUNICA         CLOUDY    61  45  55 NW7       30.15R
$$

MSZ003>006-009-014>017-022>024-029>033-037>039-232300-
NORTHEAST MISSISSIPPI

CITY           SKY/WX    TMP DP  RH WIND       PRES   REMARKS
COLUMBUS AFB   CLOUDY    65  48  54 N7        30.09S
CORINTH        FAIR      63  50  63 CALM      30.11S HAZE
GOLDN TRIANGLE PTSUNNY   64  43  45 NW7       30.09S
STARKVILLE     FAIR      63  48  59 N3        30.09F
TUPELO         CLOUDY    63  48  58 CALM      30.10S
$$

MSZ040-058-232300-
CENTRAL MISSISSIPPI

CITY           SKY/WX    TMP DP  RH WIND       PRES   REMARKS
JACKSON INTL   CLOUDY    65  49  56 N3        30.09S
JACKSON HAWKNS CLOUDY    65  48  54 CALM      30.09F
MERIDIAN KEY   CLOUDY    66  46  48 N6        30.07S
MERIDIAN NAS   CLOUDY    67  42  40 N7        30.08S
RAYMOND        FAIR      63  59  88 CALM      30.09S
VICKSBURG      CLOUDY    65  48  54 N8        30.08F
$$

MSZ059>079-232300-
SOUTH MISSISSIPPI

CITY           SKY/WX    TMP DP  RH WIND       PRES   REMARKS
BROOKHAVEN     FAIR      66  48  52 NW5       30.09S
COLUMBIA         N/A    N/A N/A N/A MISG        N/A
HATTIESBURG    MOSUNNY   71  44  37 N7        30.06S
MCCOMB         CLOUDY    69  45  41 N5        30.06S
NATCHEZ        CLOUDY    64  48  55 N8        30.09S
PINE BELT      MOSUNNY   70  45  40 N5        30.08S
$$

MSZ080>082-232300-
COASTAL MISSISSIPPI

CITY           SKY/WX    TMP DP  RH WIND       PRES   REMARKS
BAY ST LOUIS   SUNNY     73  39  29 VRB5      30.03S
BILOXI         SUNNY     72  52  48 S7        30.03R
PASCAGOULA     SUNNY     75  42  30 NE3       30.03R
GULFPORT       SUNNY     73  43  33 N6        30.02S
$$



USA.gov is the U.S. government's official web portal to all federal, state and local government web resources and services.